When you browse on this site, cookies collect data to enhance your experience and personalize the content and advertising you see.
Visit our Privacy Policy to learn more. By continuing to use the site, you agree to this use of cookies and data.
  • In Latvia
  • List of Countries
  • For 7 days
  • Water Temperature
  • Weather Map
  • Weather Widgets
  • user-avatar
    Login

    Hourly Weather Inverness

    Today, 23 September, Monday

    Time Temperature Precipitation Wind Pressure Humidity
    00:00 +15°C° 0 mm 1 mps 747 mmHg 98%
    01:00 +15°C° 0.4 mm 1 mps 747 mmHg 98%
    02:00 +15°C° 0.4 mm 1 mps 747 mmHg 98%
    03:00 +15°C° 0.4 mm 1 mps 747 mmHg 98%
    04:00 +15°C° 0.3 mm 1 mps 747 mmHg 98%
    05:00 +15°C° 0.3 mm 1 mps 747 mmHg 98%
    06:00 +15°C° 0.3 mm 1 mps 747 mmHg 98%
    07:00 +15°C° 0.2 mm 1 mps 747 mmHg 96%
    08:00 +16°C° 0.2 mm 1 mps 747 mmHg 94%
    09:00 +16°C° 0.2 mm 1 mps 747 mmHg 93%
    10:00 +18°C° 0.1 mm 1 mps 747 mmHg 86%
    11:00 +18°C° 0.1 mm 2 mps 747 mmHg 79%
    12:00 +19°C° 0.1 mm 3 mps 747 mmHg 73%
    13:00 +19°C° 0 mm 3 mps 747 mmHg 70%
    14:00 +19°C° 0 mm 4 mps 747 mmHg 68%
    15:00 +19°C° 0 mm 4 mps 747 mmHg 66%
    16:00 +17°C° 0 mm 4 mps 747 mmHg 70%
    17:00 +16°C° 0 mm 3 mps 747 mmHg 74%
    18:00 +14°C° 0 mm 3 mps 747 mmHg 78%
    19:00 +13°C° 0 mm 3 mps 747 mmHg 81%
    20:00 +13°C° 0 mm 2 mps 747 mmHg 83%
    21:00 +13°C° 0 mm 2 mps 747 mmHg 86%
    22:00 +13°C° 0 mm 2 mps 747 mmHg 85%
    23:00 +14°C° 0 mm 2 mps 747 mmHg 84%

    Tomorrow, 24 September, Tuesday

    Time Temperature Precipitation Wind Pressure Humidity
    00:00 +14°C° 0 mm 2 mps 746 mmHg 83%
    01:00 +14°C° 0 mm 2 mps 746 mmHg 85%
    02:00 +14°C° 0 mm 2 mps 746 mmHg 87%
    03:00 +14°C° 0 mm 1 mps 745 mmHg 89%
    04:00 +13°C° 0 mm 1 mps 745 mmHg 91%
    05:00 +13°C° 0 mm 1 mps 745 mmHg 93%
    06:00 +13°C° 0 mm 1 mps 744 mmHg 95%
    07:00 +14°C° 0 mm 1 mps 744 mmHg 92%
    08:00 +15°C° 0 mm 1 mps 744 mmHg 89%
    09:00 +16°C° 0 mm 1 mps 744 mmHg 86%
    10:00 +18°C° 0 mm 1 mps 744 mmHg 82%
    11:00 +18°C° 0 mm 2 mps 744 mmHg 77%
    12:00 +19°C° 0 mm 2 mps 744 mmHg 73%
    13:00 +19°C° 0.1 mm 2 mps 744 mmHg 74%
    14:00 +19°C° 0.1 mm 3 mps 744 mmHg 76%
    15:00 +19°C° 0.1 mm 3 mps 743 mmHg 77%
    16:00 +18°C° 0.2 mm 3 mps 743 mmHg 81%
    17:00 +17°C° 0.2 mm 3 mps 743 mmHg 85%
    18:00 +16°C° 0.2 mm 3 mps 743 mmHg 89%
    19:00 +16°C° 0.4 mm 3 mps 743 mmHg 91%
    20:00 +16°C° 0.4 mm 3 mps 743 mmHg 94%
    21:00 +14°C° 0.4 mm 3 mps 743 mmHg 96%
    22:00 +15°C° 0.1 mm 2 mps 743 mmHg 96%
    23:00 +15°C° 0.1 mm 2 mps 743 mmHg 96%

    Day after tomorrow, 25 September, Wednesday

    Time Temperature Precipitation Wind Pressure Humidity
    00:00 +15°C° 0.1 mm 2 mps 743 mmHg 96%
    01:00 +15°C° 0.1 mm 2 mps 743 mmHg 96%
    02:00 +15°C° 0.1 mm 2 mps 743 mmHg 96%
    03:00 +14°C° 0.1 mm 3 mps 743 mmHg 96%
    04:00 +14°C° 0.1 mm 3 mps 743 mmHg 97%
    05:00 +15°C° 0.1 mm 2 mps 743 mmHg 97%
    06:00 +15°C° 0.1 mm 2 mps 743 mmHg 97%
    07:00 +15°C° 0.1 mm 2 mps 743 mmHg 97%
    08:00 +15°C° 0.1 mm 1 mps 743 mmHg 97%
    09:00 +15°C° 0.1 mm 1 mps 743 mmHg 97%
    10:00 +16°C° 0.1 mm 1 mps 744 mmHg 94%
    11:00 +16°C° 0.1 mm 1 mps 744 mmHg 91%
    12:00 +18°C° 0.1 mm 1 mps 744 mmHg 88%
    13:00 +18°C° 0.2 mm 1 mps 744 mmHg 89%
    14:00 +18°C° 0.2 mm 1 mps 744 mmHg 90%
    15:00 +16°C° 0.2 mm 1 mps 744 mmHg 91%
    16:00 +16°C° 0.1 mm 2 mps 744 mmHg 91%
    17:00 +15°C° 0.1 mm 2 mps 744 mmHg 92%
    18:00 +15°C° 0.1 mm 2 mps 744 mmHg 93%
    19:00 +14°C° 0 mm 2 mps 743 mmHg 93%
    20:00 +14°C° 0 mm 2 mps 743 mmHg 93%
    21:00 +13°C° 0 mm 2 mps 743 mmHg 93%
    22:00 +13°C° 0.2 mm 2 mps 742 mmHg 93%
    23:00 +13°C° 0.2 mm 2 mps 742 mmHg 93%

    26 September, Thursday

    Time Temperature Precipitation Wind Pressure Humidity
    00:00 +14°C° 0.2 mm 2 mps 741 mmHg 94%
    01:00 +14°C° 1.3 mm 2 mps 741 mmHg 95%
    02:00 +13°C° 1.3 mm 3 mps 740 mmHg 95%
    03:00 +13°C° 1.3 mm 3 mps 740 mmHg 96%
    04:00 +14°C° 0.8 mm 2 mps 740 mmHg 96%
    05:00 +14°C° 0.8 mm 2 mps 740 mmHg 97%
    06:00 +13°C° 0.8 mm 1 mps 739 mmHg 97%
    07:00 +14°C° 0.2 mm 2 mps 739 mmHg 94%
    08:00 +15°C° 0.2 mm 2 mps 739 mmHg 91%
    09:00 +15°C° 0.2 mm 2 mps 740 mmHg 88%
    10:00 +14°C° 0.2 mm 3 mps 740 mmHg 84%
    11:00 +16°C° 0.2 mm 3 mps 740 mmHg 79%
    12:00 +15°C° 0.2 mm 4 mps 740 mmHg 74%
    13:00 +16°C° 0.1 mm 3 mps 740 mmHg 73%
    14:00 +16°C° 0.1 mm 3 mps 740 mmHg 72%
    15:00 +16°C° 0.1 mm 3 mps 740 mmHg 71%
    16:00 +14°C° 0 mm 2 mps 740 mmHg 75%
    17:00 +13°C° 0 mm 2 mps 740 mmHg 80%
    18:00 +12°C° 0 mm 1 mps 740 mmHg 85%
    19:00 +12°C° 0 mm 1 mps 740 mmHg 86%
    20:00 +12°C° 0 mm 1 mps 740 mmHg 87%
    21:00 +12°C° 0 mm 1 mps 740 mmHg 88%
    22:00 +11°C° 0.1 mm 1 mps 740 mmHg 90%
    23:00 +11°C° 0.1 mm 1 mps 740 mmHg 92%

    27 September, Friday

    Time Temperature Precipitation Wind Pressure Humidity
    00:00 +10°C° 0.1 mm 2 mps 740 mmHg 94%
    01:00 +9°C° 0 mm 2 mps 740 mmHg 94%
    02:00 +9°C° 0 mm 2 mps 740 mmHg 94%
    03:00 +9°C° 0 mm 2 mps 740 mmHg 94%
    04:00 +9°C° 0 mm 2 mps 740 mmHg 94%
    05:00 +8°C° 0 mm 2 mps 740 mmHg 94%
    06:00 +8°C° 0 mm 2 mps 740 mmHg 94%
    07:00 +9°C° 0 mm 2 mps 740 mmHg 90%
    08:00 +11°C° 0 mm 1 mps 740 mmHg 86%
    09:00 +13°C° 0 mm 1 mps 740 mmHg 83%
    10:00 +12°C° 1.1 mm 1 mps 740 mmHg 86%
    11:00 +12°C° 1.1 mm 1 mps 740 mmHg 90%
    12:00 +12°C° 1.1 mm 1 mps 740 mmHg 93%
    13:00 +12°C° 0.5 mm 1 mps 740 mmHg 91%
    14:00 +12°C° 0.5 mm 2 mps 740 mmHg 88%
    15:00 +12°C° 0.5 mm 3 mps 740 mmHg 86%
    16:00 +12°C° 0 mm 2 mps 740 mmHg 87%
    17:00 +10°C° 0 mm 2 mps 740 mmHg 89%
    18:00 +9°C° 0 mm 2 mps 740 mmHg 91%
    19:00 +9°C° 0 mm 2 mps 740 mmHg 92%
    20:00 +8°C° 0 mm 2 mps 741 mmHg 92%
    21:00 +8°C° 0 mm 2 mps 741 mmHg 93%
    22:00 +8°C° 0 mm 2 mps 741 mmHg 93%
    23:00 +7°C° 0 mm 3 mps 741 mmHg 93%

    28 September, Saturday

    Time Temperature Precipitation Wind Pressure Humidity
    00:00 +7°C° 0 mm 3 mps 741 mmHg 94%
    01:00 +7°C° 0 mm 3 mps 741 mmHg 94%
    02:00 +7°C° 0 mm 3 mps 741 mmHg 94%
    03:00 +7°C° 0 mm 3 mps 742 mmHg 94%
    04:00 +7°C° 0 mm 3 mps 742 mmHg 94%
    05:00 +7°C° 0 mm 3 mps 742 mmHg 94%
    06:00 +7°C° 0 mm 3 mps 742 mmHg 94%
    07:00 +8°C° 0 mm 3 mps 742 mmHg 91%
    08:00 +10°C° 0 mm 4 mps 742 mmHg 88%
    09:00 +11°C° 0 mm 4 mps 743 mmHg 84%
    10:00 +12°C° 0 mm 4 mps 743 mmHg 80%
    11:00 +13°C° 0 mm 4 mps 743 mmHg 76%
    12:00 +14°C° 0 mm 4 mps 743 mmHg 72%
    13:00 +14°C° 0.2 mm 4 mps 743 mmHg 73%
    14:00 +14°C° 0.2 mm 4 mps 743 mmHg 74%
    15:00 +13°C° 0.2 mm 5 mps 743 mmHg 76%
    16:00 +12°C° 0.1 mm 4 mps 744 mmHg 80%
    17:00 +11°C° 0.1 mm 4 mps 744 mmHg 85%
    18:00 +10°C° 0.1 mm 3 mps 744 mmHg 89%
    19:00 +10°C° 0 mm 3 mps 745 mmHg 91%
    20:00 +9°C° 0 mm 3 mps 745 mmHg 92%
    21:00 +9°C° 0 mm 3 mps 745 mmHg 94%
    22:00 +9°C° 0 mm 3 mps 745 mmHg 94%
    23:00 +8°C° 0 mm 3 mps 745 mmHg 94%
    Show more